Regional Weather Roundup
Issued by NWS

Home | Current Version | Previous Version | Graphics & Text | Print | Product List | Glossary On
Versions: 1 2 3 4 5 6 7 8 9 10 11 12 13 14 15 16 17 18 19 20 21 22 23 24 25 26 27 28 29 30 31 32 33 34 35 36 37 38 39 40 41 42 43 44 45 46 47 48 49 50
000
ASUS43 KMPX 300710
RWRMN
WEATHER ROUNDUP FOR MINNESOTA
NATIONAL WEATHER SERVICE TWIN CITIES/CHANHASSEN MN
200 AM CDT SUN AUG 30 2015


NOTE: "FAIR" INDICATES FEW OR NO CLOUDS BELOW 12,000 FEET WITH NO
SIGNIFICANT WEATHER AND/OR OBSTRUCTIONS TO VISIBILITY. N/A MEANS
CURRENT SKY AND/OR WEATHER CONDITIONS ARE NOT AVAILABLE.

MNZ060>063-068>070-300800-
   Twin Cities Metro

CITY           SKY/WX    TMP DP  RH WIND       PRES   REMARKS
TWIN CITIES    MOCLDY    63  62  97 S5        30.00F FOG
ST PAUL        CLEAR     63  62  97 SE6       30.00F
CRYSTAL        CLEAR     64  61  90 S5        29.98S
BLAINE         CLEAR     63  63 100 S3        29.99S FOG
LAKEVILLE      FOG       61  61 100 CALM      30.00F VSB 1/4
EDEN PRAIRIE   CLEAR     63  61  93 S7        29.98F
SOUTH ST PAUL  CLEAR     63  62  95 S3        30.00S FOG
LAKE ELMO      FAIR      63  61  94 S6        30.01F
$$
MNZ001>005-007-008-013>017-022>024-027-028-300800-
   Northwest Minnesota

CITY           SKY/WX    TMP DP  RH WIND       PRES   REMARKS
BEMIDJI        CLEAR     64  62  94 S6        29.90S
HALLOCK        CLEAR     68  66  94 S14       29.77F
ROSEAU         CLEAR     66  61  82 S8        29.81S
WARROAD        CLEAR     66  63  88 SW9       29.82S
THIEF RVR FALL CLEAR    N/A N/A N/A S8        29.83S
CROOKSTON      PTCLDY    68  64  88 S14       29.82F
FOSSTON        CLEAR     63  61  94 S10       29.87F
DETROIT LAKES  CLEAR     64  63  94 S9        29.91F
MOORHEAD       PTCLDY    66  64  94 S12       29.87S
PARK RAPIDS    CLOUDY    64  61  90 S8        29.92F
MAHNOMEN       FAIR      65  63  92 S9        29.87F
$$
MNZ006-009>011-018-025>026-300800-
   North Central Minnesota

CITY           SKY/WX    TMP DP  RH WIND       PRES   REMARKS
BAUDETTE       CLEAR     65  62  90 S7        29.84S
FLAG ISLAND    CLEAR     66  64  94 S8        29.80S
INTL FALLS     CLEAR     64  62  93 VRB6      29.87F
WASKISH        CLEAR     64  63  94 S7        29.86F
BIG FORK       PTCLDY    64  63  94 S9        29.91F
LONGVILLE      CLOUDY    64  63  94 S7        29.93F
GRAND RAPIDS     N/A     63  59  88 S9        29.93F
CRANE LAKE     CLEAR     61  61 100 S3        29.91F
ORR            CLEAR     61  57  88 S3        29.89F
COOK           CLEAR     63  61  94 S3        29.92F
WALKER         PTSUNNY   64  62  94 S10       29.91F
$$
MNZ012-019>021-037-300800-
   Northeast Minnesota

CITY           SKY/WX    TMP DP  RH WIND       PRES   REMARKS
DULUTH         CLEAR     63  60  90 SW10      29.96F
ELY            CLEAR     63  61  94 S5        29.94F
HIBBING        CLEAR     60  59  96 CALM      29.94F
EVELETH        CLEAR     59  59 100 S3        29.96F
DULUTH HARBOR  CLEAR     64  61  88 SW6       29.96F
TWO HARBORS    CLEAR     63  57  82 CALM      29.95S HAZE
SILVER BAY     CLEAR     57  55  94 CALM      29.94F FOG
GRAND MARAIS     N/A     53  52  96 CALM      29.93F
G MARAIS ARPRT CLEAR     59  55  88 S3        29.98F FOG
$$
MNZ029>031-032-039>041-046>048-054>057-064-300800-
   West Central Minnesota

CITY           SKY/WX    TMP DP  RH WIND       PRES   REMARKS
FERGUS FALLS   CLEAR     64  64 100 S9        29.90S
WHEATON        CLEAR     59  57  94 SE7       29.91F
MORRIS         CLEAR     63  61  94 SE7       29.92F FOG
ALEXANDRIA     CLEAR     65  63  93 S8        29.95F
ELBOW LAKE     FAIR      64  63  96 S10       29.91F
WADENA         MOCLDY    63  61  94 S5        29.93S
GLENWOOD       CLEAR     63  63 100 S9        29.96S
APPLETON       CLEAR     64  61  88 SE5       29.93S
BENSON         CLEAR     63  61  94 S6        29.95S
ORTONVILLE     CLEAR     63  59  88 SE5       29.91F
MADISON        CLEAR     63  61  94 SE6       29.92F
WILLMAR        CLOUDY    63  63 100 SE6       29.98S FOG
$$
MNZ033>034-036-042>043-049>051-058-059-300800-
   Central Minnesota

CITY           SKY/WX    TMP DP  RH WIND       PRES   REMARKS
ST CLOUD       CLEAR     59  59 100 SE5       29.97F FOG
SAUK CENTRE    CLOUDY    60  60  99 SE3       29.96F FOG
PAYNESVILLE    PTCLDY    62  62  98 SE8       29.97F
AITKIN         CLEAR     64  57  77 S6        29.94F
PINE RIVER     CLOUDY    64  64 100 S7        29.97F
BRAINERD       CLOUDY    63  61  93 S9        29.96S
STAPLES        CLOUDY    63  63 100 S8        29.94F
LONG PRAIRIE   CLOUDY    63  61  94 S8        29.96F
LITTLE FALLS   PTCLDY    59  59 100 SE5       29.97S FOG
LITCHFIELD     CLEAR     63  63 100 CALM      29.98F
BUFFALO        PTCLDY    62  59  91 S3        29.99F
MAPLE LAKE     CLEAR     62  61  97 CALM      29.99F
$$
MNZ037-044-045-052-053-300800-
   East Central Minnesota

CITY           SKY/WX    TMP DP  RH WIND       PRES   REMARKS
PRINCETON      CLEAR     63  61  94 CALM      29.99S FOG
MORA           FOG       59  57  94 CALM      30.00F VSB 1
CAMBRIDGE      CLEAR     64  55  72 CALM      29.97F HAZE
RUSH CITY      PTCLDY    60  58  95 CALM      29.99F FOG
MOOSE LAKE     PTCLDY    59  59 100 CALM      29.96F FOG
HINCKLEY       FOG       59  59 100 CALM      29.98F VSB 1
CLOQUET        CLEAR     63  59  88 SW6       29.97F
MCGREGOR       CLEAR     61  59  94 S3        29.96F
$$
MNZ071>073-080-081-089-090-097-098-300800-
   Southwest Minnesota

CITY           SKY/WX    TMP DP  RH WIND       PRES   REMARKS
MONTEVIDEO     CLEAR     63  63 100 S7        29.96S
GRANITE FALLS  CLEAR     61  61  99 SE5       29.97S
CANBY          CLEAR     66  61  85 SW6       29.93F
MARSHALL       CLEAR     63  57  82 SW14      29.96F
REDWOOD FALLS  MOCLDY    61  60  97 S8        29.97F
OLIVIA         MOCLDY    59  55  88 SE8       29.97S FOG
PIPESTONE      CLOUDY    63  61  94 SW12      30.01R FOG
WINDOM         CLOUDY    63  61  94 S10       30.01S FOG
WORTHINGTON    CLOUDY    61  57  88 S10       30.02S
JACKSON        FOG       61  61 100 S14       30.03S VSB 3/4
TRACY          CLEAR     64  63  96 SW18G25   29.97S
SLAYTON        CLOUDY    62  62 100 S13G18    30.01S FOG
$$
MNZ065>067-074>077-082>085-091>093-300800-
   South Central Minnesota

CITY           SKY/WX    TMP DP  RH WIND       PRES   REMARKS
MANKATO        CLEAR     59  55  88 S7        30.01S
NEW ULM        CLEAR     61  61 100 S8        29.99S
ST JAMES       CLOUDY    63  63 100 S8        30.01S
FAIRMONT       MOCLDY    61  55  82 S10       30.01F
GLENCOE        CLEAR     62  61  98 S5        29.98F
FARIBAULT      CLOUDY    61  61 100 S6        30.02F FOG
OWATONNA       CLOUDY    63  61  94 S6        30.02F FOG
WASECA         CLEAR     55  55 100 S3        30.04S FOG
ALBERT LEA     FOG       63  61  94 CALM      30.03F VSB 3/4
$$
MNZ078>079-086>088-094>096-300800-
   Southeast Minnesota

CITY           SKY/WX    TMP DP  RH WIND       PRES   REMARKS
ROCHESTER      CLEAR     59  58  96 S7        30.04F
RED WING       CLEAR     63  61  94 SE3       30.01F
STANTON        CLEAR     60  58  92 CALM      30.00F FOG
DODGE CENTER   PTCLDY    61  59  94 S6        30.03F
WINONA         CLEAR     59  57  94 CALM      30.04F
AUSTIN         CLEAR     63  61  94 S5        30.03F
PRESTON        CLEAR     58  57  96 S5        30.06S FOG
$$
ABBREVIATIONS USED IN REMARKS
   TC - TEMPERATURES IN CELSIUS
  WCI - WIND CHILL INDEX
   HX - HEAT INDEX
  VSB - VISIBILITY
$$


USA.gov is the U.S. government's official web portal to all federal, state and local government web resources and services.